This is the latest recevied weather packets stored in our database for station/object KC8JWT. If no packets are shown the sender has not sent any weather packets the latest 10 day(s).
| Time | Temp. | Humidity | Pressure | Rain* | Wind** | Luminosity | Snow |
|---|---|---|---|---|---|---|---|
| 1777561150 | 11.11° C | 82% | 1014.8 hPa | 0 mm | - | 264 W/m² | - |
| 1777560850 | 10.56° C | 81% | 1014.6 hPa | 0 mm | - | 170 W/m² | - |
| 1777560549 | 11.11° C | 80% | 1014.6 hPa | 0 mm | - | 70 W/m² | - |
| 1777560247 | 11.67° C | 78% | 1014.6 hPa | 0 mm | - | 125 W/m² | - |
| 1777559944 | 12.22° C | 77% | 1014.6 hPa | 0 mm | - | 171 W/m² | - |
| 1777559643 | 13.89° C | 74% | 1014.5 hPa | 0 mm | - | 97 W/m² | - |
| 1777559342 | 13.33° C | 76% | 1014.5 hPa | 0 mm | - | 735 W/m² | - |
| 1777559037 | 13.33° C | 75% | 1014.3 hPa | 0 mm | - | 278 W/m² | - |
| 1777558733 | 14.44° C | 76% | 1014.5 hPa | 0 mm | - | 792 W/m² | - |
| 1777558429 | 13.33° C | 78% | 1014.2 hPa | 0 mm | - | 710 W/m² | - |
| 1777558125 | 12.78° C | 78% | 1014.3 hPa | 0 mm | - | 684 W/m² | - |
| 1777557822 | 11.67° C | 83% | 1014.2 hPa | 0 mm | - | 421 W/m² | - |
| 1777557518 | 11.11° C | 82% | 1014.5 hPa | 0 mm | - | 271 W/m² | - |
| 1777557215 | 10.56° C | 83% | 1014.3 hPa | 0 mm | - | 243 W/m² | - |
| 1777556911 | 10.56° C | 83% | 1014 hPa | 0 mm | - | 201 W/m² | - |
| 1777556606 | 11.11° C | 83% | 1013.9 hPa | 0 mm | - | 121 W/m² | - |
| 1777556302 | 11.67° C | 83% | 1013.9 hPa | 0 mm | - | 204 W/m² | - |
| 1777555998 | 11.11° C | 83% | 1013.9 hPa | 0 mm | - | 396 W/m² | - |
| 1777555698 | 11.67° C | 81% | 1013.9 hPa | 0 mm | - | 186 W/m² | - |
| 1777555395 | 12.22° C | 83% | 1013.9 hPa | 0 mm | - | 454 W/m² | - |
| 1777555091 | 11.11° C | 85% | 1013.8 hPa | 0 mm | - | 439 W/m² | - |
| 1777554789 | 10° C | 87% | 1013.9 hPa | 0 mm | - | 462 W/m² | - |
| 1777554486 | 10° C | 87% | 1014 hPa | 0 mm | - | 156 W/m² | - |
| 1777554182 | 11.11° C | 85% | 1013.5 hPa | 0 mm | - | 107 W/m² | - |
| 1777553879 | 12.22° C | 83% | 1013.7 hPa | 0 mm | - | 159 W/m² | - |
* Rain latest hour (hover to see other rain measurements)
** Current wind speed in m/s (hover to see current wind gust speed)